QPF
0.04 0.04 0.05 0.05 0.03 0.02 0.02 0.02 0.02 0.02 0.02 0.02 0.02 0.02 0.02 0.02 0.02 0.01 0.01 0.01 0.01 0.00 0.00 0.00 0.00 0.00 0.00 0.00 0.00 0.00 0.00 0.00 0.01 0.00 0.00 0.00 0.01 0.01 0.00 0.00 0.00 0.00 0.00
0.03 0.03 0.03 0.02 0.01 0.01 0.01 0.01 0.01 0.01 0.01 0.01 0.02 0.02 0.02 0.01 0.01 0.01 0.01 0.01 0.01 0.00 0.00 0.00 0.00 0.00 0.00 0.00 0.00 0.01 0.01 0.01 0.01 0.01 0.01 0.01 0.01 0.01 0.01 0.01 0.00 0.00 0.00
0.02 0.02 0.02 0.01 0.01 0.01 0.01 0.01 0.00 0.00 0.00 0.01 0.01 0.00 0.00 0.00 0.00 0.00 0.00 0.00 0.00 0.00 0.00 0.00 0.00 0.00 0.01 0.01 0.01 0.01 0.02 0.01 0.02 0.02 0.01 0.01 0.01 0.01 0.01 0.01 0.01 0.02 0.01
0.01 0.01 0.01 0.01 0.01 0.01 0.01 0.01 0.01 0.01 0.01 0.00 0.00 0.00 0.00 0.00 0.00 0.00 0.00 0.00 0.00 0.00 0.00 0.00 0.00 0.01 0.01 0.02 0.02 0.03 0.03 0.03 0.03 0.03 0.02 0.02 0.01 0.01 0.02 0.02 0.01 0.01 0.01
0.01 0.01 0.01 0.01 0.01 0.01 0.01 0.00 0.00 0.00 0.00 0.00 0.00 0.00 0.00 0.00 0.00 0.00 0.00 0.00 0.00 0.00 0.00 0.00 0.00 0.00 0.01 0.01 0.01 0.02 0.03 0.04 0.03 0.03 0.02 0.02 0.02 0.03 0.03 0.03 0.02 0.02 0.01
0.01 0.01 0.01 0.01 0.01 0.01 0.00 0.00 0.00 0.00 0.00 0.00 0.00 0.00 0.00 0.00 0.00 0.00 0.00 0.00 0.00 0.00 0.00 0.00 0.00 0.00 0.00 0.00 0.00 0.01 0.01 0.02 0.02 0.03 0.03 0.03 0.03 0.04 0.05 0.04 0.04 0.04 0.03
0.01 0.01 0.01 0.00 0.00 0.00 0.00 0.00 0.00 0.00 0.00 0.00 0.00 0.00 0.00 0.00 0.00 0.00 0.00 0.00 0.00 0.00 0.00 0.01 0.01 0.01 0.01 0.02 0.01 0.01 0.02 0.01 0.01 0.02 0.04 0.05 0.05 0.06 0.06 0.04 0.05 0.05 0.04
0.01 0.01 0.00 0.00 0.00 0.00 0.00 0.00 0.00 0.00 0.00 0.00 0.00 0.00 0.00 0.00 0.00 0.00 0.00 0.00 0.00 0.01 0.01 0.01 0.01 0.01 0.01 0.00 0.01 0.02 0.04 0.04 0.04 0.03 0.05 0.05 0.04 0.04 0.04 0.04 0.04 0.04 0.03
0.00 0.00 0.00 0.00 0.00 0.00 0.00 0.00 0.00 0.00 0.00 0.00 0.00 0.00 0.01 0.01 0.00 0.00 0.00 0.00 0.01 0.01 0.01 0.01 0.01 0.01 0.01 0.00 0.01 0.02 0.04 0.07 0.04 0.02 0.02 0.01 0.01 0.01 0.01 0.03 0.05 0.05 0.05
0.00 0.00 0.00 0.00 0.00 0.00 0.00 0.00 0.00 0.00 0.00 0.00 0.00 0.00 0.00 0.01 0.00 0.00 0.00 0.00 0.00 0.01 0.01 0.02 0.01 0.00 0.01 0.01 0.01 0.03 0.05 0.05 0.04 0.03 0.04 0.04 0.05 0.04 0.01 0.03 0.05 0.05 0.05
0.00 0.00 0.00 0.00 0.00 0.00 0.01 0.01 0.01 0.01 0.00 0.00 0.00 0.00 0.00 0.00 0.00 0.00 0.00 0.00 0.00 0.00 0.01 0.02 0.02 0.01 0.01 0.01 0.02 0.03 0.04 0.02 0.03 0.05 0.06 0.07 0.07 0.06 0.05 0.04 0.04 0.05 0.05
0.00 0.00 0.00 0.00 0.00 0.00 0.01 0.01 0.01 0.00 0.00 0.01 0.01 0.00 0.00 0.00 0.00 0.00 0.00 0.00 0.00 0.01 0.02 0.02 0.01 0.01 0.01 0.01 0.01 0.02 0.02 0.02 0.06 0.07 0.06 0.06 0.06 0.05 0.03 0.02 0.03 0.03 0.04
0.00 0.01 0.00 0.00 0.00 0.00 0.01 0.01 0.01 0.00 0.00 0.00 0.00 0.00 0.00 0.00 0.00 0.00 0.00 0.00 0.00 0.01 0.02 0.01 0.01 0.01 0.01 0.03 0.02 0.01 0.03 0.07 0.07 0.07 0.07 0.06 0.05 0.04 0.03 0.03 0.03 0.04 0.04
0.01 0.01 0.00 0.00 0.00 0.00 0.00 0.00 0.00 0.00 0.00 0.00 0.00 0.00 0.00 0.01 0.00 0.00 0.00 0.01 0.01 0.01 0.02 0.02 0.02 0.02 0.03 0.05 0.05 0.06 0.08 0.06 0.04 0.06 0.06 0.06 0.06 0.06 0.05 0.03 0.03 0.04 0.04
0.01 0.00 0.00 0.00 0.00 0.00 0.00 0.00 0.00 0.00 0.00 0.00 0.00 0.00 0.00 0.00 0.00 0.00 0.00 0.00 0.00 0.00 0.01 0.04 0.05 0.04 0.05 0.06 0.06 0.07 0.08 0.07 0.06 0.07 0.07 0.07 0.06 0.06 0.05 0.04 0.04 0.04 0.04
0.00 0.00 0.00 0.00 0.00 0.00 0.00 0.00 0.00 0.00 0.00 0.00 0.00 0.00 0.00 0.00 0.00 0.00 0.00 0.00 0.00 0.00 0.02 0.04 0.03 0.02 0.02 0.03 0.03 0.04 0.05 0.05 0.05 0.06 0.07 0.07 0.07 0.06 0.06 0.05 0.05 0.04 0.05
0.00 0.00 0.00 0.00 0.00 0.00 0.00 0.00 0.00 0.00 0.00 0.00 0.00 0.00 0.00 0.00 0.00 0.00 0.01 0.01 0.01 0.01 0.03 0.03 0.03 0.02 0.02 0.02 0.03 0.03 0.03 0.04 0.04 0.06 0.07 0.07 0.07 0.06 0.06 0.06 0.05 0.05 0.05
0.00 0.00 0.00 0.00 0.00 0.00 0.00 0.00 0.00 0.00 0.01 0.00 0.00 0.00 0.00 0.00 0.00 0.00 0.01 0.01 0.02 0.02 0.02 0.01 0.01 0.01 0.01 0.02 0.02 0.02 0.02 0.03 0.04 0.04 0.05 0.06 0.06 0.06 0.06 0.06 0.06 0.04 0.04
0.00 0.00 0.00 0.00 0.00 0.00 0.00 0.00 0.00 0.00 0.00 0.00 0.01 0.01 0.00 0.00 0.00 0.00 0.01 0.02 0.01 0.01 0.01 0.01 0.01 0.01 0.00 0.01 0.01 0.01 0.02 0.02 0.02 0.02 0.03 0.03 0.04 0.05 0.05 0.05 0.05 0.03 0.04
0.00 0.00 0.00 0.00 0.00 0.00 0.00 0.00 0.00 0.00 0.00 0.01 0.01 0.00 0.00 0.02 0.03 0.02 0.01 0.01 0.01 0.01 0.01 0.01 0.01 0.00 0.00 0.00 0.00 0.00 0.01 0.01 0.01 0.01 0.01 0.02 0.03 0.03 0.03 0.03 0.04 0.05 0.05
0.00 0.00 0.00 0.00 0.00 0.00 0.00 0.00 0.00 0.00 0.01 0.01 0.01 0.00 0.00 0.01 0.02 0.02 0.01 0.01 0.00 0.00 0.00 0.00 0.00 0.00 0.00 0.00 0.00 0.00 0.00 0.00 0.00 0.00 0.01 0.02 0.03 0.03 0.03 0.02 0.03 0.03 0.04
0.00 0.00 0.00 0.00 0.00 0.00 0.00 0.00 0.00 0.00 0.01 0.01 0.01 0.00 0.00 0.01 0.02 0.01 0.01 0.00 0.00 0.00 0.00 0.00 0.00 0.00 0.00 0.00 0.00 0.00 0.00 0.00 0.00 0.00 0.00 0.01 0.02 0.03 0.03 0.02 0.02 0.02 0.02
0.00 0.00 0.00 0.00 0.00 0.00 0.00 0.00 0.00 0.00 0.00 0.01 0.01 0.01 0.01 0.02 0.02 0.01 0.01 0.00 0.00 0.00 0.00 0.00 0.00 0.00 0.00 0.00 0.00 0.00 0.00 0.00 0.00 0.00 0.00 0.01 0.02 0.02 0.02 0.02 0.01 0.01 0.01
0.00 0.00 0.00 0.00 0.00 0.00 0.00 0.00 0.00 0.00 0.00 0.00 0.01 0.01 0.01 0.01 0.01 0.01 0.01 0.00 0.00 0.00 0.00 0.00 0.00 0.00 0.00 0.00 0.00 0.00 0.00 0.00 0.00 0.00 0.00 0.00 0.01 0.02 0.01 0.01 0.00 0.00 0.00
0.00 0.00 0.00 0.00 0.00 0.00 0.00 0.00 0.00 0.00 0.00 0.00 0.00 0.00 0.01 0.01 0.01 0.00 0.00 0.00 0.00 0.00 0.00 0.00 0.00 0.00 0.00 0.00 0.00 0.00 0.00 0.00 0.00 0.00 0.00 0.00 0.01 0.01 0.01 0.00 0.00 0.00 0.00
0.00 0.00 0.00 0.00 0.00 0.00 0.00 0.00 0.00 0.00 0.00 0.00 0.00 0.00 0.01 0.01 0.00 0.00 0.00 0.00 0.00 0.00 0.00 0.00 0.00 0.00 0.00 0.00 0.00 0.00 0.00 0.00 0.00 0.00 0.00 0.00 0.00 0.00 0.00 0.00 0.00 0.00 0.00
MSLP
1023.13 1023.25 1023.37 1023.49 1023.61 1023.73 1023.86 1023.99 1024.12 1024.24 1024.35 1024.44 1024.50 1024.56 1024.59 1024.61 1024.61 1024.60 1024.57 1024.52 1024.44 1024.33 1024.17 1023.96 1023.68 1023.36 1022.97 1022.54 1022.08 1021.59 1021.10 1020.63 1020.19 1019.81 1019.49 1019.24 1019.07 1018.96 1018.89 1018.86 1018.84 1018.81 1018.75
1023.78 1023.89 1023.99 1024.07 1024.13 1024.19 1024.26 1024.33 1024.41 1024.50 1024.59 1024.69 1024.78 1024.86 1024.92 1024.96 1024.97 1024.95 1024.90 1024.82 1024.70 1024.54 1024.34 1024.11 1023.83 1023.50 1023.14 1022.73 1022.28 1021.81 1021.32 1020.82 1020.34 1019.90 1019.50 1019.16 1018.88 1018.66 1018.49 1018.36 1018.25 1018.15 1018.04
1024.22 1024.36 1024.46 1024.54 1024.58 1024.62 1024.65 1024.68 1024.74 1024.81 1024.91 1025.02 1025.13 1025.24 1025.32 1025.36 1025.37 1025.33 1025.24 1025.10 1024.91 1024.70 1024.45 1024.18 1023.89 1023.57 1023.22 1022.85 1022.44 1022.00 1021.53 1021.04 1020.55 1020.06 1019.59 1019.16 1018.78 1018.46 1018.18 1017.94 1017.74 1017.55 1017.38
1024.53 1024.71 1024.84 1024.93 1024.99 1025.02 1025.05 1025.08 1025.12 1025.20 1025.30 1025.42 1025.55 1025.67 1025.76 1025.81 1025.79 1025.71 1025.57 1025.36 1025.11 1024.83 1024.53 1024.22 1023.91 1023.59 1023.27 1022.94 1022.58 1022.19 1021.75 1021.28 1020.79 1020.27 1019.76 1019.25 1018.78 1018.35 1017.97 1017.63 1017.33 1017.06 1016.82
1024.78 1024.99 1025.17 1025.29 1025.37 1025.41 1025.44 1025.47 1025.52 1025.60 1025.70 1025.83 1025.97 1026.10 1026.19 1026.23 1026.19 1026.07 1025.87 1025.60 1025.29 1024.94 1024.59 1024.24 1023.92 1023.61 1023.32 1023.02 1022.71 1022.36 1021.97 1021.53 1021.03 1020.50 1019.94 1019.38 1018.84 1018.32 1017.85 1017.43 1017.05 1016.71 1016.40
1025.01 1025.26 1025.46 1025.61 1025.70 1025.76 1025.79 1025.82 1025.86 1025.94 1026.04 1026.18 1026.32 1026.44 1026.53 1026.55 1026.49 1026.34 1026.10 1025.79 1025.42 1025.03 1024.64 1024.28 1023.94 1023.64 1023.36 1023.10 1022.82 1022.51 1022.15 1021.72 1021.23 1020.69 1020.10 1019.50 1018.90 1018.32 1017.79 1017.31 1016.87 1016.48 1016.14
1025.25 1025.51 1025.72 1025.87 1025.96 1026.01 1026.04 1026.06 1026.09 1026.16 1026.26 1026.38 1026.52 1026.64 1026.72 1026.73 1026.65 1026.48 1026.22 1025.88 1025.49 1025.08 1024.67 1024.29 1023.96 1023.66 1023.40 1023.16 1022.90 1022.60 1022.25 1021.83 1021.33 1020.77 1020.16 1019.53 1018.90 1018.30 1017.74 1017.23 1016.77 1016.37 1016.01
1025.51 1025.74 1025.93 1026.06 1026.14 1026.16 1026.16 1026.16 1026.18 1026.22 1026.31 1026.42 1026.55 1026.66 1026.73 1026.74 1026.66 1026.48 1026.22 1025.88 1025.48 1025.07 1024.66 1024.29 1023.95 1023.66 1023.40 1023.15 1022.89 1022.59 1022.23 1021.79 1021.28 1020.70 1020.08 1019.44 1018.80 1018.20 1017.65 1017.15 1016.71 1016.32 1015.97
1025.74 1025.94 1026.09 1026.18 1026.21 1026.20 1026.17 1026.14 1026.13 1026.16 1026.24 1026.34 1026.46 1026.57 1026.63 1026.64 1026.56 1026.39 1026.13 1025.80 1025.41 1025.01 1024.61 1024.24 1023.90 1023.60 1023.32 1023.05 1022.76 1022.43 1022.04 1021.57 1021.04 1020.45 1019.83 1019.19 1018.57 1018.00 1017.48 1017.03 1016.63 1016.28 1015.97
1025.94 1026.09 1026.18 1026.22 1026.21 1026.16 1026.10 1026.05 1026.03 1026.05 1026.12 1026.22 1026.34 1026.44 1026.51 1026.51 1026.44 1026.27 1026.02 1025.69 1025.32 1024.92 1024.52 1024.13 1023.78 1023.45 1023.14 1022.83 1022.50 1022.12 1021.68 1021.18 1020.62 1020.02 1019.40 1018.79 1018.21 1017.68 1017.22 1016.83 1016.50 1016.21 1015.95
1026.08 1026.17 1026.22 1026.21 1026.16 1026.09 1026.02 1025.96 1025.95 1025.98 1026.05 1026.16 1026.28 1026.39 1026.45 1026.45 1026.37 1026.20 1025.94 1025.61 1025.22 1024.81 1024.39 1023.99 1023.60 1023.22 1022.86 1022.49 1022.09 1021.65 1021.17 1020.63 1020.05 1019.45 1018.84 1018.26 1017.73 1017.27 1016.88 1016.56 1016.30 1016.07 1015.87
1026.16 1026.20 1026.20 1026.17 1026.10 1026.02 1025.96 1025.93 1025.94 1026.00 1026.10 1026.23 1026.36 1026.47 1026.53 1026.52 1026.42 1026.22 1025.93 1025.57 1025.15 1024.71 1024.25 1023.79 1023.35 1022.92 1022.48 1022.04 1021.58 1021.08 1020.55 1019.98 1019.39 1018.79 1018.21 1017.67 1017.19 1016.79 1016.47 1016.21 1016.01 1015.84 1015.69
1026.17 1026.18 1026.16 1026.11 1026.05 1025.99 1025.96 1025.97 1026.03 1026.14 1026.28 1026.44 1026.59 1026.71 1026.76 1026.72 1026.58 1026.34 1026.00 1025.59 1025.12 1024.61 1024.09 1023.57 1023.06 1022.55 1022.05 1021.55 1021.02 1020.48 1019.90 1019.31 1018.71 1018.13 1017.58 1017.08 1016.65 1016.30 1016.03 1015.82 1015.67 1015.54 1015.40
1026.12 1026.12 1026.09 1026.04 1026.00 1025.98 1026.00 1026.07 1026.20 1026.36 1026.56 1026.75 1026.92 1027.04 1027.07 1027.00 1026.81 1026.51 1026.11 1025.63 1025.09 1024.51 1023.92 1023.33 1022.75 1022.18 1021.62 1021.05 1020.48 1019.90 1019.31 1018.71 1018.12 1017.55 1017.03 1016.57 1016.18 1015.86 1015.62 1015.44 1015.29 1015.17 1015.05
1026.04 1026.02 1026.00 1025.96 1025.95 1025.98 1026.06 1026.19 1026.38 1026.60 1026.84 1027.08 1027.26 1027.37 1027.38 1027.26 1027.02 1026.67 1026.20 1025.65 1025.04 1024.39 1023.74 1023.09 1022.46 1021.84 1021.24 1020.64 1020.04 1019.45 1018.85 1018.26 1017.68 1017.14 1016.64 1016.20 1015.83 1015.53 1015.29 1015.10 1014.95 1014.81 1014.66
1025.92 1025.90 1025.87 1025.85 1025.87 1025.94 1026.06 1026.25 1026.49 1026.76 1027.04 1027.30 1027.49 1027.59 1027.57 1027.42 1027.14 1026.72 1026.20 1025.60 1024.94 1024.25 1023.56 1022.88 1022.22 1021.59 1020.97 1020.37 1019.78 1019.19 1018.60 1018.02 1017.46 1016.94 1016.45 1016.03 1015.65 1015.34 1015.08 1014.86 1014.67 1014.49 1014.31
1025.78 1025.74 1025.71 1025.70 1025.74 1025.83 1025.99 1026.21 1026.48 1026.79 1027.09 1027.35 1027.54 1027.63 1027.59 1027.41 1027.09 1026.65 1026.10 1025.47 1024.80 1024.10 1023.41 1022.74 1022.09 1021.48 1020.88 1020.30 1019.73 1019.16 1018.60 1018.04 1017.50 1016.98 1016.49 1016.05 1015.66 1015.32 1015.02 1014.76 1014.51 1014.28 1014.04
1025.62 1025.57 1025.53 1025.51 1025.55 1025.65 1025.82 1026.05 1026.34 1026.65 1026.96 1027.22 1027.40 1027.48 1027.42 1027.23 1026.90 1026.45 1025.91 1025.29 1024.64 1023.98 1023.33 1022.70 1022.10 1021.53 1020.99 1020.45 1019.92 1019.38 1018.84 1018.30 1017.76 1017.24 1016.74 1016.28 1015.85 1015.46 1015.11 1014.79 1014.48 1014.19 1013.91
1025.45 1025.38 1025.32 1025.29 1025.31 1025.41 1025.57 1025.81 1026.09 1026.39 1026.69 1026.94 1027.11 1027.18 1027.12 1026.92 1026.61 1026.19 1025.68 1025.11 1024.52 1023.93 1023.35 1022.80 1022.28 1021.78 1021.30 1020.82 1020.33 1019.82 1019.30 1018.76 1018.22 1017.68 1017.15 1016.64 1016.17 1015.73 1015.32 1014.95 1014.59 1014.25 1013.91
1025.28 1025.18 1025.10 1025.06 1025.07 1025.15 1025.31 1025.52 1025.79 1026.08 1026.36 1026.60 1026.76 1026.82 1026.76 1026.59 1026.31 1025.93 1025.48 1025.00 1024.49 1023.99 1023.51 1023.05 1022.62 1022.21 1021.79 1021.37 1020.92 1020.44 1019.92 1019.37 1018.80 1018.23 1017.65 1017.10 1016.58 1016.09 1015.63 1015.21 1014.81 1014.42 1014.06
1025.11 1024.99 1024.90 1024.85 1024.85 1024.93 1025.07 1025.28 1025.53 1025.80 1026.06 1026.28 1026.44 1026.50 1026.46 1026.31 1026.08 1025.76 1025.39 1024.99 1024.58 1024.18 1023.81 1023.45 1023.11 1022.77 1022.42 1022.04 1021.61 1021.14 1020.61 1020.04 1019.44 1018.81 1018.19 1017.59 1017.02 1016.48 1015.99 1015.53 1015.10 1014.70 1014.31
1024.95 1024.83 1024.74 1024.69 1024.70 1024.77 1024.91 1025.11 1025.35 1025.61 1025.86 1026.08 1026.22 1026.29 1026.27 1026.16 1025.98 1025.72 1025.43 1025.12 1024.80 1024.50 1024.22 1023.95 1023.69 1023.41 1023.11 1022.75 1022.34 1021.85 1021.31 1020.70 1020.05 1019.38 1018.71 1018.06 1017.45 1016.88 1016.35 1015.88 1015.44 1015.04 1014.65
1024.82 1024.71 1024.63 1024.60 1024.62 1024.71 1024.86 1025.06 1025.30 1025.56 1025.80 1026.01 1026.16 1026.24 1026.24 1026.16 1026.02 1025.82 1025.60 1025.36 1025.13 1024.91 1024.70 1024.50 1024.29 1024.06 1023.78 1023.44 1023.02 1022.52 1021.94 1021.30 1020.61 1019.89 1019.18 1018.48 1017.84 1017.25 1016.71 1016.24 1015.81 1015.41 1015.04
1024.73 1024.64 1024.59 1024.59 1024.64 1024.75 1024.91 1025.13 1025.37 1025.62 1025.86 1026.07 1026.22 1026.30 1026.32 1026.27 1026.16 1026.02 1025.84 1025.67 1025.50 1025.33 1025.18 1025.03 1024.85 1024.65 1024.39 1024.04 1023.62 1023.10 1022.49 1021.82 1021.09 1020.34 1019.59 1018.87 1018.20 1017.60 1017.06 1016.60 1016.19 1015.81 1015.47
1024.69 1024.63 1024.61 1024.64 1024.72 1024.86 1025.04 1025.27 1025.51 1025.76 1026.00 1026.20 1026.35 1026.44 1026.47 1026.44 1026.36 1026.25 1026.12 1025.98 1025.85 1025.73 1025.62 1025.49 1025.35 1025.16 1024.90 1024.56 1024.12 1023.59 1022.97 1022.27 1021.52 1020.75 1019.98 1019.24 1018.56 1017.96 1017.43 1016.97 1016.58 1016.23 1015.91
1024.70 1024.68 1024.69 1024.75 1024.86 1025.01 1025.21 1025.44 1025.69 1025.93 1026.16 1026.35 1026.49 1026.58 1026.62 1026.60 1026.55 1026.46 1026.36 1026.26 1026.16 1026.08 1025.99 1025.88 1025.76 1025.58 1025.33 1024.99 1024.56 1024.02 1023.40 1022.70 1021.94 1021.16 1020.38 1019.64 1018.96 1018.35 1017.82 1017.38 1017.00 1016.68 1016.38
Thickness
5621 5618 5614 5610 5605 5602 5598 5593 5589 5585 5582 5579 5575 5572 5568 5565 5561 5558 5556 5552 5549 5546 5542 5539 5535 5530 5529 5525 5522 5518 5514 5510 5509 5508 5504 5501 5496 5492 5491 5490 5489 5489 5490
5603 5601 5597 5593 5589 5586 5582 5578 5574 5571 5568 5563 5561 5558 5554 5550 5546 5543 5539 5536 5533 5529 5524 5520 5517 5513 5507 5505 5501 5498 5494 5489 5487 5487 5486 5484 5483 5480 5479 5477 5477 5479 5477
5588 5585 5581 5577 5573 5569 5566 5563 5560 5556 5553 5549 5547 5543 5539 5535 5531 5527 5523 5519 5515 5510 5506 5502 5498 5493 5489 5487 5481 5479 5477 5474 5471 5470 5471 5471 5471 5471 5469 5468 5469 5467 5467
5573 5569 5565 5561 5558 5555 5552 5549 5546 5542 5539 5536 5533 5529 5525 5521 5517 5513 5508 5504 5499 5494 5489 5485 5481 5476 5472 5468 5466 5463 5461 5458 5458 5457 5459 5461 5461 5461 5459 5460 5461 5461 5459
5558 5555 5551 5548 5544 5541 5538 5535 5532 5530 5527 5523 5520 5516 5512 5508 5500 5494 5492 5490 5485 5480 5475 5471 5467 5459 5453 5450 5449 5448 5447 5446 5447 5447 5449 5451 5452 5451 5450 5450 5450 5451 5453
5545 5542 5539 5535 5532 5529 5526 5523 5520 5518 5515 5512 5508 5504 5500 5493 5482 5477 5473 5474 5471 5467 5463 5460 5456 5452 5445 5440 5437 5435 5433 5435 5437 5437 5439 5440 5441 5441 5441 5441 5442 5443 5446
5533 5530 5527 5524 5521 5518 5516 5513 5510 5507 5504 5500 5497 5493 5488 5478 5469 5464 5461 5460 5461 5457 5453 5450 5448 5446 5439 5436 5434 5433 5433 5430 5428 5429 5432 5433 5434 5436 5435 5437 5437 5437 5438
5523 5520 5517 5514 5511 5508 5506 5503 5499 5496 5493 5490 5485 5481 5476 5468 5459 5455 5451 5454 5454 5449 5446 5442 5440 5437 5433 5427 5428 5432 5434 5434 5431 5430 5430 5430 5431 5431 5431 5432 5432 5433 5435
5513 5511 5508 5505 5502 5500 5496 5492 5489 5486 5483 5480 5476 5471 5466 5459 5450 5446 5443 5448 5448 5445 5442 5439 5435 5432 5425 5422 5424 5430 5434 5435 5434 5431 5429 5429 5428 5427 5426 5428 5431 5432 5435
5504 5501 5498 5495 5493 5490 5486 5483 5480 5477 5475 5472 5467 5462 5458 5453 5444 5439 5435 5442 5442 5440 5439 5437 5432 5428 5424 5422 5424 5430 5433 5434 5435 5435 5434 5433 5432 5432 5429 5427 5429 5430 5431
5495 5492 5489 5487 5484 5481 5478 5475 5472 5471 5467 5464 5461 5457 5451 5445 5440 5434 5431 5433 5434 5435 5436 5435 5433 5427 5426 5425 5425 5429 5431 5430 5434 5436 5438 5439 5438 5437 5435 5432 5430 5429 5429
5486 5484 5482 5480 5478 5476 5472 5469 5466 5464 5463 5460 5456 5453 5449 5443 5436 5433 5429 5427 5426 5430 5433 5433 5433 5430 5429 5430 5431 5432 5431 5431 5437 5439 5441 5442 5441 5440 5438 5436 5433 5430 5428
5480 5478 5476 5473 5471 5468 5466 5465 5463 5460 5460 5457 5454 5450 5446 5442 5438 5432 5431 5430 5429 5431 5434 5433 5432 5433 5434 5437 5436 5436 5435 5439 5441 5443 5444 5443 5443 5441 5440 5438 5436 5433 5432
5474 5472 5470 5468 5466 5463 5461 5461 5459 5457 5455 5452 5449 5446 5443 5440 5437 5433 5432 5434 5434 5437 5438 5438 5438 5439 5440 5440 5441 5443 5443 5443 5443 5444 5445 5446 5445 5444 5443 5442 5439 5436 5436
5470 5467 5466 5465 5463 5458 5456 5452 5451 5446 5442 5441 5442 5440 5438 5436 5429 5423 5423 5429 5430 5433 5433 5441 5444 5446 5447 5447 5448 5448 5447 5447 5447 5447 5448 5449 5449 5448 5446 5444 5441 5439 5437
5467 5465 5464 5462 5459 5457 5453 5448 5439 5437 5433 5430 5428 5427 5430 5426 5424 5424 5425 5427 5429 5431 5436 5444 5445 5447 5447 5447 5448 5449 5449 5449 5449 5449 5450 5450 5450 5450 5449 5446 5445 5442 5441
5464 5462 5462 5460 5457 5453 5451 5449 5445 5436 5430 5428 5427 5425 5425 5424 5425 5426 5428 5430 5433 5434 5441 5444 5444 5445 5445 5446 5446 5447 5448 5449 5448 5449 5449 5450 5450 5450 5450 5448 5447 5445 5444
5462 5459 5457 5456 5454 5452 5449 5447 5446 5444 5441 5437 5430 5427 5426 5426 5426 5428 5431 5434 5441 5442 5443 5443 5443 5443 5443 5444 5445 5445 5447 5448 5449 5449 5450 5449 5449 5450 5450 5449 5448 5446 5446
5461 5460 5456 5455 5452 5450 5448 5446 5444 5442 5441 5439 5438 5433 5429 5430 5429 5431 5433 5439 5442 5441 5441 5441 5441 5441 5441 5443 5444 5445 5446 5447 5448 5449 5449 5448 5449 5449 5449 5450 5449 5445 5446
5459 5451 5450 5453 5452 5449 5447 5445 5443 5441 5440 5438 5437 5436 5435 5436 5437 5437 5437 5438 5438 5438 5438 5438 5439 5439 5440 5441 5443 5444 5446 5447 5447 5448 5448 5448 5448 5449 5450 5450 5450 5450 5449
5461 5456 5447 5451 5451 5449 5446 5444 5442 5440 5439 5438 5436 5431 5426 5435 5437 5436 5436 5436 5435 5435 5434 5434 5437 5438 5438 5439 5440 5441 5442 5444 5444 5444 5445 5446 5447 5448 5449 5450 5451 5451 5451
5462 5460 5456 5454 5451 5447 5445 5443 5441 5439 5438 5436 5435 5434 5427 5433 5435 5435 5434 5433 5433 5432 5431 5431 5433 5434 5433 5434 5435 5437 5438 5439 5439 5439 5441 5444 5447 5448 5449 5450 5449 5451 5449
5461 5460 5456 5453 5449 5441 5442 5442 5440 5438 5437 5435 5435 5435 5434 5433 5433 5433 5432 5431 5431 5430 5430 5430 5430 5431 5430 5431 5431 5432 5433 5432 5432 5434 5438 5442 5446 5448 5448 5449 5449 5449 5449
5464 5461 5458 5453 5449 5446 5444 5441 5439 5437 5435 5435 5434 5433 5433 5432 5432 5431 5431 5430 5430 5429 5428 5428 5428 5428 5428 5429 5429 5430 5426 5425 5426 5431 5436 5441 5445 5446 5448 5448 5448 5448 5448
5466 5462 5459 5455 5451 5448 5444 5441 5439 5437 5435 5434 5433 5433 5432 5432 5431 5431 5430 5429 5429 5428 5428 5427 5427 5426 5426 5426 5425 5424 5424 5426 5427 5430 5435 5442 5444 5444 5446 5447 5448 5448 5447
5467 5464 5461 5457 5453 5448 5445 5442 5439 5437 5436 5434 5433 5433 5432 5432 5431 5430 5429 5428 5428 5428 5427 5427 5426 5425 5424 5424 5423 5423 5425 5428 5430 5433 5435 5442 5444 5443 5443 5447 5447 5448 5447